Location: ????????
(56.1167°N, 38.6333°E)
Time: 21:36:21
(UTC+00:00)

Cosmos 2227 Rocket - Pass Details

Date: 18 November 2025
Orbit: 839 x 842 km, 71.0° (Epoch: 14 December)

Event Time Altitude Azimuth Distance (km) Brightness Sun altitude
Rises 15:48:33 0° 306° (NW) 3,404 6.1 -21.2°
Reaches altitude 10° 15:51:48 10° 325° (NW) 2,468 5.0 -21.7°
Maximum altitude 15:55:41 19° 8° (N) 1,934 4.0 -22.2°
Enters shadow 15:56:44 18° 22° (NNE) 1,978 3.9 -22.4°
